SCP
0 0 0 0 0 0 1 1 1 1 1 1 1 1 1 1 1 1 1 1 1 1 1 1 1 1 1 1 1 1 1 1 1 1 1 1 1 1 1 1 0 0 0
0 0 0 0 0 0 1 1 1 1 1 1 1 1 1 1 1 1 2 1 1 1 1 1 1 1 1 1 1 1 1 1 1 1 1 1 1 1 1 1 0 0 0
0 0 0 0 1 1 1 1 1 1 1 1 1 1 1 1 1 1 1 1 1 1 1 1 1 1 1 1 1 1 1 1 1 1 1 0 1 1 1 1 1 1 1
0 0 0 0 1 1 1 1 1 1 1 0 1 1 1 1 1 1 1 1 1 1 1 1 1 1 1 1 1 1 1 1 1 0 0 0 0 0 1 1 1 1 1
0 0 0 0 1 1 1 1 1 1 1 0 1 1 1 1 1 1 1 1 1 1 1 1 1 1 1 1 1 1 1 1 1 0 0 0 0 0 1 1 1 1 1
0 0 0 0 1 1 1 1 1 1 0 0 0 0 0 0 0 0 1 1 1 1 1 1 1 1 1 1 1 1 1 1 0 0 0 0 0 0 1 1 1 1 1
0 0 0 0 1 1 1 1 1 1 1 1 1 0 0 0 0 0 1 1 1 1 1 1 1 1 1 1 1 1 1 1 0 0 0 0 0 0 1 1 2 2 2
0 0 0 0 0 0 0 0 0 0 1 1 1 1 1 1 1 1 1 1 1 1 1 1 1 1 1 1 1 1 1 1 0 0 0 0 0 1 1 1 2 2 2
0 0 0 0 0 0 0 0 0 0 0 1 1 1 1 1 1 1 1 1 1 1 1 1 1 1 1 1 1 1 1 0 0 0 0 0 1 1 1 1 2 2 2
0 0 0 0 0 0 0 0 0 0 0 0 0 1 1 1 1 1 1 1 1 1 1 1 1 1 1 1 1 1 1 0 0 0 0 0 1 1 1 1 2 2 2
0 0 0 0 0 0 0 0 0 0 0 0 0 0 0 0 0 1 1 1 1 1 1 1 1 1 1 1 1 1 0 0 0 0 0 0 1 1 1 1 1 1 1
0 0 0 0 0 0 0 0 0 0 0 0 0 0 0 0 0 0 1 1 1 1 1 1 1 1 1 1 1 0 0 0 0 0 0 0 0 0 1 1 1 1 1
0 0 0 0 0 0 0 0 0 0 0 0 0 0 0 0 0 0 0 0 1 1 1 1 1 1 1 0 0 0 0 0 0 0 0 0 0 1 0 0 0 0 0
0 0 0 0 0 0 0 0 0 0 0 0 0 0 0 0 0 0 0 0 0 0 0 0 0 0 0 0 0 0 0 0 0 0 0 0 0 1 1 0 0 0 0
0 0 0 0 0 0 0 0 0 0 0 0 0 0 0 0 0 0 0 0 0 0 0 0 0 0 0 0 0 0 0 0 0 0 0 0 0 1 1 1 0 0 0
0 0 0 0 0 0 0 0 0 0 0 0 0 0 0 0 0 0 0 0 0 0 0 0 0 0 0 0 0 0 0 0 0 0 0 0 0 0 1 1 1 0 0
0 0 0 0 0 0 0 0 0 0 0 0 0 0 0 0 0 0 0 0 0 0 0 0 0 0 0 0 0 0 0 0 0 0 0 0 0 0 1 1 1 1 0
0 0 0 0 0 0 0 0 0 0 0 0 0 0 0 0 0 0 0 0 0 0 0 0 0 0 0 0 0 0 0 0 0 0 0 0 0 0 0 1 1 1 1
0 0 0 0 0 0 0 0 0 0 0 0 0 0 0 0 0 0 0 0 0 0 0 0 0 0 0 0 0 0 0 0 0 0 0 0 0 0 0 0 1 1 1
0 0 0 0 0 0 0 0 0 0 0 0 0 0 0 0 0 0 0 0 0 0 0 0 0 0 0 0 0 0 0 0 0 0 0 0 0 0 0 0 0 0 0
0 0 0 0 0 0 0 0 0 0 0 0 0 0 0 0 0 0 0 0 0 0 0 0 0 0 0 0 0 0 0 0 0 0 0 0 0 0 0 0 0 0 0
0 0 0 0 0 0 0 0 0 0 0 0 0 0 0 0 0 0 0 0 0 0 0 0 0 0 0 0 0 0 0 0 0 0 0 0 0 0 0 0 0 0 0
0 0 0 0 0 0 0 0 0 0 0 0 0 0 0 0 0 0 0 0 0 0 0 0 0 0 0 0 0 0 0 0 0 0 0 0 0 0 0 0 0 0 0
0 0 0 0 0 0 0 0 0 0 0 0 0 0 0 0 0 0 0 0 0 0 0 0 0 0 0 0 0 0 0 0 0 0 0 0 0 0 0 0 0 0 0
0 0 1 0 0 0 0 0 0 0 0 0 0 0 0 0 0 0 0 0 0 0 0 0 0 0 0 0 0 0 0 0 0 0 0 0 0 0 0 0 0 0 0
1 1 1 1 0 0 0 0 0 0 0 0 0 0 0 0 0 0 0 0 0 0 0 0 0 0 0 0 0 0 0 0 0 0 0 0 0 0 0 0 0 0 0
Wind_Speed
1 1 6 7 8 8 9 10 10 10 10 11 11 11 11 11 11 11 11 12 12 11 11 11 11 10 10 10 10 10 9 9 8 8 8 8 8 7 7 7 6 4 6
4 3 7 8 8 9 9 10 10 11 11 11 11 11 11 11 11 11 11 11 11 11 11 11 10 10 10 10 10 10 9 9 8 8 8 7 7 7 7 7 6 4 6
6 4 6 8 9 9 10 10 10 11 11 11 11 11 11 11 11 11 11 11 11 11 11 10 10 10 10 10 10 10 9 9 8 8 7 3 3 6 7 7 6 6 6
7 5 6 9 10 9 10 10 10 11 10 10 11 10 10 11 10 10 11 11 11 11 11 10 9 9 9 10 10 10 9 9 9 8 4 3 2 6 7 6 6 6 6
6 4 6 10 10 10 10 10 10 10 10 11 11 10 10 10 10 10 10 10 10 10 10 10 9 9 9 9 9 9 9 9 9 7 3 3 2 6 7 6 6 6 6
6 4 6 10 10 10 10 10 10 11 10 10 10 10 10 10 10 9 9 9 9 9 9 9 9 9 9 9 9 9 9 9 7 4 3 2 2 6 7 6 6 5 6
5 4 5 9 10 10 10 10 11 10 10 10 10 10 10 10 10 9 8 8 8 8 8 8 8 8 8 8 9 9 9 9 5 4 3 2 3 6 7 6 6 6 6
6 4 4 9 10 10 10 10 10 10 10 10 10 10 10 9 9 8 8 8 8 7 7 7 7 7 8 8 8 9 9 8 6 4 3 2 4 6 7 6 7 6 6
6 5 3 4 5 8 9 9 9 9 9 9 10 10 9 9 8 7 6 6 6 7 7 6 6 6 6 7 8 9 9 9 5 2 4 2 5 7 7 7 7 7 7
5 4 3 3 3 3 4 8 8 8 8 8 8 8 8 7 7 7 5 5 5 5 5 5 5 5 6 6 8 9 9 7 4 3 2 3 8 8 8 8 8 8 8
5 3 3 3 3 2 3 5 5 6 6 6 5 6 5 3 3 3 4 5 4 4 4 4 4 4 5 6 7 8 7 3 3 2 2 6 9 9 9 9 9 9 9
4 4 3 3 3 2 3 3 2 2 2 2 2 2 2 2 2 2 4 4 4 4 5 5 5 5 4 3 4 5 3 3 2 2 3 8 9 10 10 9 9 9 9
5 5 4 4 3 3 2 2 1 1 1 1 2 2 1 1 1 2 1 2 3 4 3 4 4 3 3 2 2 3 2 2 2 1 3 8 9 9 9 9 9 8 8
5 5 5 4 3 3 3 2 2 1 1 1 0 1 2 1 1 1 1 1 1 1 2 2 2 2 2 2 3 3 2 2 2 1 2 6 7 8 8 8 8 8 8
5 4 5 5 4 3 3 2 2 1 1 1 1 1 2 2 1 1 1 1 1 1 2 1 2 2 2 2 2 3 3 2 2 1 2 5 7 7 7 7 7 7 7
5 5 5 5 5 4 3 2 2 2 1 2 2 2 2 2 2 2 1 1 1 1 1 2 2 2 1 2 2 2 2 2 2 2 1 2 5 7 7 7 6 6 6
5 5 5 5 5 4 4 3 3 2 2 2 2 2 3 2 2 2 2 2 1 1 2 2 3 2 2 3 3 2 2 2 2 2 2 1 2 4 5 6 5 5 5
5 5 5 6 5 4 4 3 2 2 3 2 2 2 3 3 3 3 2 2 1 2 2 2 2 2 3 2 2 2 1 1 2 1 1 1 1 2 3 5 6 5 5
6 6 5 5 6 5 4 3 3 3 3 2 2 2 3 4 4 3 3 2 2 2 2 2 2 2 2 2 1 2 2 1 1 2 2 2 1 2 2 4 6 6 5
6 6 6 6 5 5 4 3 3 3 2 2 2 2 3 3 3 3 3 3 3 3 3 3 2 2 1 1 2 3 2 2 1 1 1 1 1 2 2 2 3 3 5
6 6 6 6 5 4 3 3 2 2 1 1 1 2 3 3 3 4 3 3 3 3 2 2 2 3 2 1 2 3 3 3 3 2 1 1 1 1 2 2 2 1 2
7 6 6 6 6 5 4 3 3 2 1 1 1 2 2 3 3 3 3 2 2 2 3 3 2 2 1 2 2 2 2 4 4 3 2 1 1 1 2 1 1 1 1
7 7 7 6 6 5 5 3 3 3 3 2 1 1 1 2 2 3 3 3 2 2 2 1 2 2 1 1 1 3 2 1 2 3 3 2 2 1 1 1 1 1 1
8 7 7 7 6 5 5 5 5 4 2 2 1 1 0 1 2 2 2 3 2 2 1 1 2 1 2 0 1 1 1 3 2 1 3 3 2 2 1 1 1 1 1
7 7 6 6 6 5 5 6 6 4 3 2 1 2 1 0 1 2 2 2 2 1 1 1 2 2 1 1 1 0 1 2 1 2 1 3 3 2 1 1 0 0 0
6 6 6 7 6 6 6 6 6 6 4 4 3 2 1 0 0 1 2 2 2 1 1 1 1 2 1 2 1 1 2 1 1 1 1 1 1 2 1 1 1 0 0
Wind_Direction
139 152 110 97 90 87 86 85 83 84 87 91 91 92 89 89 90 92 92 91 92 91 88 86 85 84 82 83 85 85 86 86 85 86 87 91 96 95 95 98 100 96 100
149 138 116 104 98 93 90 87 88 89 88 91 91 91 91 89 91 95 95 93 93 93 91 88 84 80 79 80 79 80 78 78 80 78 77 79 89 91 94 99 99 98 104
126 123 117 109 104 98 95 93 92 91 91 91 90 90 92 91 93 95 96 96 96 94 92 89 84 80 78 78 76 75 74 73 77 77 72 57 74 92 93 95 95 94 96
124 122 118 112 107 101 98 97 94 94 94 91 90 89 92 92 93 96 98 98 97 95 93 90 86 82 79 76 72 68 67 71 76 75 60 45 63 94 98 97 96 94 93
113 114 118 112 107 102 100 99 95 95 93 93 92 92 94 94 93 94 97 96 96 95 93 90 87 84 81 76 72 69 67 74 75 68 55 44 49 92 99 99 96 94 92
107 106 117 113 109 103 101 101 98 96 95 94 93 94 96 97 97 96 95 94 94 96 95 92 88 85 83 78 74 72 73 74 68 60 53 46 55 89 94 93 94 91 89
116 112 116 114 111 105 101 100 100 98 97 96 93 94 96 98 99 101 102 101 97 93 91 92 89 85 84 81 77 76 75 72 67 57 50 42 69 93 94 90 90 88 86
124 116 114 116 114 109 106 104 101 100 97 95 93 93 95 96 96 100 101 101 102 99 94 89 84 83 82 80 78 76 74 73 70 63 55 42 83 92 92 90 86 83 80
120 113 101 110 111 113 112 109 104 103 100 98 97 92 91 91 91 96 106 104 106 103 95 84 77 87 87 83 80 75 75 73 65 52 65 46 74 86 88 87 84 81 77
118 120 115 107 104 107 111 113 111 107 103 99 98 95 89 85 84 87 91 101 109 104 95 86 77 85 83 83 78 75 78 74 64 51 43 56 68 77 82 86 83 79 75
129 131 130 123 122 124 124 118 114 110 105 98 94 94 82 55 55 72 81 81 76 75 79 84 79 74 74 73 76 74 73 64 65 49 51 74 71 73 79 81 79 75 71
149 151 146 145 148 149 141 111 96 97 92 86 84 83 72 62 51 69 63 74 64 53 49 57 55 57 56 48 61 66 68 66 61 53 70 78 76 74 74 76 76 72 68
160 155 155 159 160 155 131 125 104 88 85 76 86 95 91 64 41 46 38 44 45 42 32 33 37 39 46 49 60 69 75 73 65 48 65 78 78 77 75 74 75 72 67
149 159 160 163 155 155 140 134 127 117 110 106 114 113 109 94 65 62 58 27 42 44 42 33 38 40 47 56 74 81 79 82 78 54 57 77 81 82 80 78 75 70 68
148 155 157 156 151 145 130 130 127 144 133 129 114 110 115 120 112 93 72 43 35 45 56 57 53 53 45 58 79 100 96 89 91 80 58 74 79 83 83 81 79 75 68
154 156 153 153 155 141 133 129 127 131 119 101 90 90 100 109 109 99 79 56 39 43 55 75 73 65 52 61 70 95 109 105 92 94 75 64 70 75 79 83 81 77 72
161 156 154 154 151 143 139 136 123 124 108 94 85 79 84 94 104 109 93 67 43 55 67 61 55 54 56 52 47 58 91 101 102 97 96 66 54 65 67 72 77 78 75
157 152 157 153 145 143 134 122 112 105 97 88 86 73 71 82 92 91 83 69 61 71 67 71 59 54 44 44 38 29 49 85 104 107 101 80 55 51 50 57 63 74 71
162 154 150 141 142 140 129 115 107 100 92 89 86 75 67 70 80 87 81 66 69 70 64 71 62 71 57 33 29 36 28 38 83 111 103 101 86 76 58 51 55 58 60
160 153 147 140 139 132 116 97 85 80 73 74 78 80 80 76 80 83 77 64 67 67 54 58 62 46 53 28 37 33 19 14 43 83 107 109 96 83 71 54 43 36 46
150 150 150 145 148 134 118 116 112 110 83 70 78 87 84 85 86 85 78 70 67 73 72 64 61 50 27 34 56 22 7 17 32 23 32 79 73 61 69 66 59 31 18
157 157 152 153 151 148 145 146 145 139 128 114 82 78 83 90 92 98 96 90 78 76 63 57 70 71 13 36 96 80 18 0 359 11 14 52 60 52 49 62 76 63 28
160 163 161 159 156 153 144 123 101 76 61 52 42 46 62 98 103 104 111 106 94 90 90 76 93 110 99 0 70 128 134 206 315 342 0 18 34 58 41 45 64 59 57
173 165 157 162 162 158 148 142 140 138 149 180 180 178 136 110 111 114 116 112 108 101 107 100 86 99 117 73 5 50 133 154 151 322 337 349 7 34 36 64 55 36 26
170 165 162 163 165 157 155 157 152 149 161 158 149 151 157 133 125 127 127 125 120 113 129 106 84 88 109 136 145 104 74 66 98 140 270 322 347 345 2 29 52 36 340
159 163 164 164 169 164 159 161 164 163 162 151 158 170 184 184 201 150 136 136 140 143 162 148 120 109 103 106 102 103 127 128 149 139 175 261 298 307 340 354 2 325 313